sat.trackr.live / text

‹ back to catalog

HAWK-9B

NORAD 59450 · 2024-066J

PAYLOAD ACTIVE UNKNOWN

§ Identity

Operator
Country
US
Launch date
2024-04-07
Launch site
AFETR
Launch vehicle
Mass (kg)
RCS (m²)

External: N2YO · Heavens-Above · Gunter

§ Orbital elements

Epoch: 2026-09-22T08:27:17.964000Z

Period
96.04 min
Inclination
45.6092°
Eccentricity
0.0003260
Mean motion
14.99386155 rev/d
Perigee alt
566.5 km
Apogee alt
571.1 km
Semi-major
6,946.9 km
B*
8.7997e-5
RAAN
135.8552°
Arg perigee
191.5495°
Mean anomaly
168.5312°
Rev number
13,441

§ Raw data

HAWK-9B1 59450U 24066J   26265.35229125  .00000861  00000+0  87997-4 0  99992 59450  45.6092 135.8552 0003260 191.5495 168.5312 14.99386155134415

JSON: /api/v1/satellites/59450 · /tle

For live sub-satellite position, see the globe view (requires WebGL).

§ Visibility from observer

Set your observer location to see the next 7 days of passes ≥ 10°. The values pass through the URL so the page stays shareable.

No JS? Fill the form by hand. The geolocation button needs JavaScript.